Change the Weather History Date:

Thursday, March 14, 2013

  Actual Average Record
Temperature  
Mean Temperature 23 °F -  
Max Temperature 30 °F 29 °F 51 °F (1990)
Min Temperature 17 °F 17 °F -4 °F (1993)
Degree Days  
Heating Degree Days 42    
Moisture  
Dew Point 14 °F    
Average Humidity 66    
Maximum Humidity 87    
Minimum Humidity 52    
Precipitation  
Precipitation 0.00 in - - ()
Sea Level Pressure  
Sea Level Pressure 30.11 in    
Wind  
Wind Speed 8 mph (West)    
Max Wind Speed 13 mph    
Max Gust Speed 21 mph    
Visibility 10 miles    
Events Snow    
Averages and records for this station are not official NWS values.
T = Trace of Precipitation, MM = Missing Value Source: NWS Daily Summary

Daily Weather History Graph

Daily Weather History Graph

Search for Another Location

Airport or City:

Trip Planner

Search our weather history database for the weather conditions in past years. The results will help you decide how hot, cold, wet, or windy it might be!

Date:

Astronomy

Mar. 14, 2013 Rise Set
Actual Time 7:52 AM EDT 7:43 PM EDT
Civil Twilight 7:22 AM EDT 8:13 PM EDT
Nautical Twilight 6:48 AM EDT 8:47 PM EDT
Astronomical Twilight 6:13 AM EDT 9:23 PM EDT
Moon 8:54 AM EDT (3/14) 11:11 PM EDT (3/14)
Length of Visible Light 12h 50m
Length of Day
11h 50m
Waxing Crescent, 9% of the Moon is Illuminated
Mar 14
Waxing Crescent
Mar 19
First Quarter
Mar 27
Full
Apr 3
Last Quarter
Apr 10
New

Hourly Weather History & Observations

Time (EDT) Temp. Windchill Dew Point Humidity Pressure Visibility Wind Dir Wind Speed Gust Speed Precip Events Conditions
12:16 AM 21.6 °F 13.0 °F 16.5 °F 81% 30.14 in 10.0 mi West 6.9 mph - N/A   Clear
12:36 AM 21.2 °F 12.6 °F 17.1 °F 84% 30.14 in 10.0 mi West 6.9 mph - N/A   Clear
12:56 AM 21.0 °F 11.4 °F 17.6 °F 87% 30.14 in 10.0 mi West 8.1 mph - N/A   Scattered Clouds
1:16 AM 21.6 °F 13.0 °F 18.3 °F 87% 30.14 in 10.0 mi West 6.9 mph - N/A   Scattered Clouds
1:36 AM 21.9 °F 11.7 °F 18.7 °F 87% 30.13 in 10.0 mi West 9.2 mph - N/A Snow Light Snow
1:55 AM 22.1 °F 12.8 °F 18.7 °F 87% 30.14 in 10.0 mi West 8.1 mph 16.1 mph N/A   Scattered Clouds
2:16 AM 22.5 °F 11.7 °F 18.9 °F 86% 30.14 in 10.0 mi WNW 10.4 mph 16.1 mph N/A   Overcast
2:36 AM 22.5 °F 11.7 °F 18.9 °F 86% 30.15 in 10.0 mi WNW 10.4 mph - N/A   Overcast
2:55 AM 22.1 °F 12.0 °F 18.7 °F 87% 30.15 in 10.0 mi WNW 9.2 mph - N/A   Overcast
3:16 AM 22.1 °F 12.0 °F 18.5 °F 86% 30.15 in 10.0 mi WNW 9.2 mph - N/A   Overcast
3:36 AM 21.9 °F 13.4 °F 17.6 °F 83% 30.15 in 10.0 mi NW 6.9 mph - N/A   Mostly Cloudy
3:55 AM 21.7 °F 12.3 °F 14.0 °F 72% 30.15 in 10.0 mi NNW 8.1 mph - N/A   Overcast
4:16 AM 21.6 °F 11.3 °F 10.4 °F 62% 30.15 in 10.0 mi NNW 9.2 mph - N/A   Mostly Cloudy
4:36 AM 21.2 °F 9.5 °F 9.9 °F 62% 30.15 in 10.0 mi NNW 11.5 mph - N/A   Scattered Clouds
4:55 AM 20.7 °F 11.0 °F 7.5 °F 57% 30.15 in 10.0 mi North 8.1 mph - N/A   Clear
5:16 AM 20.1 °F 10.3 °F 7.3 °F 58% 30.15 in 10.0 mi North 8.1 mph - N/A   Clear
5:36 AM 20.3 °F 9.8 °F 6.8 °F 56% 30.15 in 10.0 mi NNW 9.2 mph - N/A   Clear
5:55 AM 19.4 °F 9.5 °F 6.4 °F 57% 30.15 in 10.0 mi North 8.1 mph - N/A   Clear
6:16 AM 19.2 °F 9.3 °F 5.0 °F 54% 30.16 in 10.0 mi North 8.1 mph - N/A   Clear
6:36 AM 18.5 °F 10.4 °F 5.0 °F 56% 30.16 in 10.0 mi NNW 5.8 mph - N/A   Clear
6:55 AM 18.5 °F 10.4 °F 4.8 °F 55% 30.17 in 10.0 mi NNW 5.8 mph - N/A   Clear
7:16 AM 17.6 °F 9.3 °F 4.8 °F 57% 30.17 in 10.0 mi NNW 5.8 mph - N/A   Clear
7:36 AM 17.6 °F 8.2 °F 5.0 °F 58% 30.17 in 10.0 mi NNW 6.9 mph - N/A   Clear
7:56 AM 17.6 °F 10.7 °F 5.0 °F 58% 30.17 in 10.0 mi NNW 4.6 mph - N/A   Clear
8:16 AM 17.1 °F 8.7 °F 6.3 °F 63% 30.17 in 10.0 mi NNW 5.8 mph - N/A   Clear
8:36 AM 18.1 °F 11.3 °F 6.8 °F 61% 30.18 in 10.0 mi NW 4.6 mph - N/A   Clear
8:56 AM 19.6 °F 13.0 °F 7.0 °F 58% 30.18 in 10.0 mi NNW 4.6 mph - N/A   Clear
9:16 AM 19.9 °F 12.1 °F 7.2 °F 58% 30.19 in 10.0 mi WNW 5.8 mph - N/A   Clear
9:36 AM 19.9 °F 13.4 °F 7.9 °F 60% 30.20 in 10.0 mi NW 4.6 mph - N/A   Clear
10:16 AM 21.7 °F 15.5 °F 6.8 °F 53% 30.20 in 10.0 mi North 4.6 mph - N/A   Clear
10:35 AM 21.7 °F 17.0 °F 7.7 °F 55% 30.20 in 10.0 mi West 3.5 mph - N/A   Clear
10:56 AM 21.7 °F 17.0 °F 7.5 °F 54% 30.20 in 10.0 mi WNW 3.5 mph - N/A   Clear
11:16 AM 22.1 °F 17.4 °F 7.3 °F 53% 30.19 in 10.0 mi West 3.5 mph - N/A   Clear
11:35 AM 23.0 °F 15.8 °F 7.5 °F 52% 30.19 in 10.0 mi West 5.8 mph - N/A   Clear
11:56 AM 21.9 °F 14.5 °F 7.7 °F 54% 30.19 in 10.0 mi SW 5.8 mph - N/A   Clear
12:16 PM 22.8 °F 14.5 °F 9.0 °F 55% 30.18 in 10.0 mi SSW 6.9 mph - N/A   Clear
12:35 PM 23.4 °F 14.3 °F 9.5 °F 55% 30.17 in 10.0 mi SW 8.1 mph - N/A   Clear
12:56 PM 23.7 °F 14.7 °F 10.6 °F 57% 30.17 in 10.0 mi WSW 8.1 mph - N/A   Clear
1:16 PM 24.1 °F 13.1 °F 11.3 °F 58% 30.17 in 10.0 mi WSW 11.5 mph - N/A   Clear
1:35 PM 24.6 °F 15.8 °F 11.3 °F 57% 30.17 in 10.0 mi WSW 8.1 mph - N/A   Clear
1:56 PM 25.5 °F 17.8 °F 12.2 °F 57% 30.16 in 10.0 mi WSW 6.9 mph - N/A   Clear
2:16 PM 25.5 °F 14.9 °F 13.1 °F 59% 30.15 in 10.0 mi WSW 11.5 mph - N/A   Clear
2:36 PM 26.2 °F 17.1 °F 13.8 °F 59% 30.15 in 10.0 mi WSW 9.2 mph - N/A   Clear
2:56 PM 27.0 °F 18.0 °F 15.1 °F 61% 30.14 in 10.0 mi WSW 9.2 mph - N/A   Clear
3:16 PM 26.6 °F 15.7 °F 15.6 °F 63% 30.12 in 10.0 mi WSW 12.7 mph - N/A   Clear
3:36 PM 27.1 °F 17.5 °F 16.0 °F 63% 30.12 in 10.0 mi WSW 10.4 mph 17.3 mph N/A   Clear
3:56 PM 27.5 °F 16.8 °F 16.9 °F 64% 30.11 in 10.0 mi WSW 12.7 mph 18.4 mph N/A   Clear
4:16 PM 28.0 °F 17.5 °F 17.8 °F 65% 30.10 in 10.0 mi WSW 12.7 mph 20.7 mph N/A   Clear
4:36 PM 28.2 °F 20.2 °F 18.9 °F 68% 30.10 in 10.0 mi WSW 8.1 mph 18.4 mph N/A   Clear
4:56 PM 28.4 °F 19.7 °F 19.0 °F 68% 30.09 in 10.0 mi WSW 9.2 mph 18.4 mph N/A   Clear
5:15 PM 28.8 °F 18.4 °F 18.7 °F 66% 30.09 in 10.0 mi WSW 12.7 mph - N/A   Clear
5:36 PM 28.2 °F 20.2 °F 18.5 °F 67% 30.08 in 10.0 mi WSW 8.1 mph 17.3 mph N/A   Clear
5:56 PM 28.6 °F 19.9 °F 18.5 °F 66% 30.07 in 10.0 mi WSW 9.2 mph 16.1 mph N/A   Clear
6:15 PM 28.0 °F 21.7 °F 19.2 °F 70% 30.06 in 10.0 mi WSW 5.8 mph - N/A   Clear
6:36 PM 28.2 °F 19.5 °F 19.4 °F 70% 30.06 in 10.0 mi WSW 9.2 mph 16.1 mph N/A   Clear
6:56 PM 27.7 °F 18.8 °F 20.3 °F 74% 30.06 in 10.0 mi SW 9.2 mph 17.3 mph N/A   Clear
7:15 PM 27.9 °F 19.1 °F 20.3 °F 73% 30.05 in 10.0 mi SW 9.2 mph 16.1 mph N/A   Clear
7:36 PM 27.5 °F 18.0 °F 19.9 °F 73% 30.03 in 10.0 mi SW 10.4 mph - N/A   Scattered Clouds
7:56 PM 27.9 °F 19.1 °F 20.3 °F 73% 30.01 in 10.0 mi SW 9.2 mph 19.6 mph N/A   Mostly Cloudy
8:16 PM 27.9 °F 18.4 °F 19.6 °F 71% 30.01 in 10.0 mi SW 10.4 mph - N/A   Scattered Clouds
8:36 PM 27.5 °F 19.3 °F 19.0 °F 71% 30.00 in 10.0 mi SW 8.1 mph - N/A   Scattered Clouds
8:56 PM 27.9 °F 20.6 °F 18.9 °F 69% 29.99 in 10.0 mi SW 6.9 mph - N/A   Mostly Cloudy
9:16 PM 27.9 °F 20.6 °F 18.3 °F 67% 29.98 in 10.0 mi SW 6.9 mph - N/A   Overcast
9:36 PM 27.9 °F 20.6 °F 18.9 °F 69% 29.97 in 10.0 mi SSW 6.9 mph - N/A   Overcast
9:55 PM 28.2 °F 20.2 °F 19.0 °F 68% 29.96 in 10.0 mi SW 8.1 mph - N/A   Overcast
10:16 PM 28.4 °F 20.4 °F 19.8 °F 70% 29.96 in 10.0 mi SW 8.1 mph - N/A   Overcast
10:36 PM 28.8 °F 20.9 °F 21.0 °F 73% 29.95 in 10.0 mi SW 8.1 mph - N/A   Overcast
10:55 PM 29.3 °F 20.8 °F 21.2 °F 72% 29.95 in 10.0 mi SW 9.2 mph - N/A   Overcast
11:16 PM 29.8 °F 20.3 °F 21.2 °F 70% 29.95 in 10.0 mi SW 11.5 mph - N/A   Overcast
11:36 PM 30.0 °F 21.7 °F 21.0 °F 69% 29.94 in 10.0 mi SW 9.2 mph - N/A   Overcast